User: anonymous   Login
Location: Allie Creek
(37.5926°N, 89.8526°W)
Time: 11:26:17
(UTC+00:00)
Language:

ADEOS Rocket - Orbit

View from above orbital plane
View from above orbital plane
View from above satellite
View from above satellite

Ground track
Ground track

The orbit data is extracted from the following two-line orbital elements,

1 24279U 96046C   24056.88116183 -.00000018  00000-0  21220-4 0  9993
2 24279  98.7059  90.9650 0299993 174.3710 359.0810 13.47292147353138
Epoch (UTC): 25 February 2024 21:08:52
Eccentricity: 0.0299993
inclination: 98.7059°
perigee height: 858 km
apogee height: 1306 km
right ascension of ascending node: 90.9650°
argument of perigee: 174.3710°
revolutions per day: 13.47292147
mean anomaly at epoch: 359.0810°
orbit number at epoch: 35313

The dashed part of the orbit path shows where the satellite is in the earth's shadow,  

DLR